Weather History for Enid, OK

Change the Weather History Date:

Wednesday, November 6, 2013

  Actual Average Record
Temperature  
Mean Temperature 44 °F -  
Max Temperature 53 °F 58 °F 75 °F (1999)
Min Temperature 35 °F 42 °F 30 °F (2010)
Degree Days  
Heating Degree Days 21    
Moisture  
Dew Point 37 °F    
Average Humidity 85    
Maximum Humidity 100    
Minimum Humidity 51    
Precipitation  
Precipitation 0.00 in - - ()
Sea Level Pressure  
Sea Level Pressure 30.24 in    
Wind  
Wind Speed 13 mph (NNW)    
Max Wind Speed 21 mph    
Max Gust Speed 28 mph    
Visibility 10 miles    
Events      
Averages and records for this station are not official NWS values.
T = Trace of Precipitation, MM = Missing Value Source: NWS Daily Summary

Daily Weather History Graph

Daily Weather History Graph

Search for Another Location

Airport:

Trip Planner

Search our weather history database for the weather conditions in past years. The results will help you decide how hot, cold, wet, or windy it might be!

Date:

Astronomy

Nov. 06, 2013 Rise Set
Actual Time 6:59 AM CST 5:29 PM CST
Civil Twilight 6:32 AM CST 5:56 PM CST
Nautical Twilight 6:01 AM CST 6:27 PM CST
Astronomical Twilight 5:31 AM CST 6:57 PM CST
Moon 10:13 AM CST (11/6) 8:37 PM CST (11/6)
Length of Visible Light 11h 23m
Length of Day
10h 30m
Waxing Crescent, 14% of the Moon is Illuminated
Nov 6
Waxing Crescent
Nov 9
First Quarter
Nov 17
Full
Nov 25
Last Quarter
Dec 2
New

Hourly Weather History & Observations

Time (CST) Temp. Windchill Dew Point Humidity Pressure Visibility Wind Dir Wind Speed Gust Speed Precip Events Conditions
12:15 AM 44.6 °F 37.8 °F 41.0 °F 87% 30.06 in 10.0 mi NNW 15.0 mph 23.0 mph N/A   Mostly Cloudy
12:35 AM 42.8 °F 35.1 °F 41.0 °F 93% 30.07 in 10.0 mi NNW 16.1 mph 23.0 mph N/A   Overcast
12:55 AM 42.8 °F 34.8 °F 41.0 °F 93% 30.08 in 10.0 mi NNW 17.3 mph 21.9 mph N/A   Overcast
1:15 AM 42.8 °F 34.8 °F 39.2 °F 87% 30.09 in 10.0 mi NNW 17.3 mph 25.3 mph N/A   Overcast
1:35 AM 42.8 °F 34.5 °F 39.2 °F 87% 30.10 in 10.0 mi NNW 18.4 mph 23.0 mph N/A   Overcast
1:55 AM 42.8 °F 34.8 °F 39.2 °F 87% 30.10 in 10.0 mi NNW 17.3 mph 21.9 mph N/A   Overcast
2:15 AM 41.0 °F 31.6 °F 37.4 °F 87% 30.11 in 10.0 mi NNW 20.7 mph 26.5 mph N/A   Scattered Clouds
2:35 AM 41.0 °F 31.9 °F 35.6 °F 81% 30.11 in 10.0 mi NNW 19.6 mph 25.3 mph N/A   Clear
2:55 AM 41.0 °F 32.2 °F 37.4 °F 87% 30.12 in 10.0 mi NNW 18.4 mph - N/A   Scattered Clouds
3:15 AM 39.2 °F 30.5 °F 37.4 °F 93% 30.13 in 10.0 mi NNW 16.1 mph 19.6 mph N/A   Scattered Clouds
3:35 AM 39.2 °F 31.2 °F 35.6 °F 87% 30.14 in 10.0 mi NNW 13.8 mph - N/A   Scattered Clouds
3:55 AM 41.0 °F 31.9 °F 35.6 °F 81% 30.15 in 10.0 mi NNW 19.6 mph 24.2 mph N/A   Mostly Cloudy
4:15 AM 41.0 °F 31.9 °F 35.6 °F 81% 30.14 in 10.0 mi NNW 19.6 mph 25.3 mph N/A   Overcast
4:35 AM 41.0 °F 33.1 °F 35.6 °F 81% 30.15 in 10.0 mi NNW 15.0 mph 20.7 mph N/A   Overcast
4:55 AM 41.0 °F 31.9 °F 35.6 °F 81% 30.14 in 10.0 mi North 19.6 mph 23.0 mph N/A   Overcast
6:17 AM 41.0 °F 32.8 °F 37.4 °F 87% 30.19 in 10.0 mi NNW 16.1 mph - N/A   Overcast
6:50 AM 41.0 °F 32.8 °F 35.6 °F 81% 30.22 in 10.0 mi NNW 16.1 mph 27.6 mph N/A   Mostly Cloudy
7:55 AM 41.0 °F 32.8 °F 35.6 °F 81% 30.26 in 10.0 mi NNW 16.1 mph 24.2 mph N/A   Mostly Cloudy
8:50 AM 41.0 °F 32.5 °F 35.6 °F 81% 30.29 in 10.0 mi NW 17.3 mph - N/A   Mostly Cloudy
9:55 AM 42.8 °F 35.4 °F 37.4 °F 81% 30.29 in 10.0 mi NW 15.0 mph 23.0 mph N/A   Scattered Clouds
10:50 AM 46.4 °F 39.5 °F 37.4 °F 71% 30.30 in 10.0 mi NNW 17.3 mph - N/A   Scattered Clouds
12:50 PM 50.0 °F - 37.4 °F 62% 30.29 in 10.0 mi NW 10.4 mph 19.6 mph N/A   Partly Cloudy
1:50 PM 51.8 °F - 35.6 °F 54% 30.28 in 10.0 mi NNW 13.8 mph 19.6 mph N/A   Partly Cloudy
2:50 PM 53.6 °F - 35.6 °F 51% 30.29 in 10.0 mi NNW 13.8 mph - N/A   Partly Cloudy
3:50 PM 53.6 °F - 35.6 °F 51% 30.29 in 10.0 mi NNW 8.1 mph - N/A   Clear
5:50 PM 46.4 °F - 37.4 °F 71% 30.30 in 10.0 mi Calm Calm - N/A   Clear
6:50 PM 42.8 °F - 37.4 °F 81% 30.32 in 10.0 mi Calm Calm - N/A   Clear
8:15 PM 37.4 °F 34.9 °F 35.6 °F 93% 30.32 in 10.0 mi South 3.5 mph - N/A   Clear
8:35 PM 37.4 °F - 35.6 °F 93% 30.33 in 10.0 mi Calm Calm - N/A   Clear
8:50 PM 39.2 °F - 37.4 °F 93% 30.34 in 10.0 mi Calm Calm - N/A   Clear
8:55 PM 37.4 °F - 35.6 °F 93% 30.34 in 10.0 mi Calm Calm - N/A   Clear
9:15 PM 37.4 °F - 35.6 °F 93% 30.34 in 10.0 mi Calm Calm - N/A   Clear
9:35 PM 37.4 °F - 35.6 °F 93% 30.34 in 10.0 mi Calm Calm - N/A   Clear
9:55 PM 35.6 °F - 35.6 °F 100% 30.34 in 10.0 mi Calm Calm - N/A   Clear
10:15 PM 37.4 °F - 35.6 °F 93% 30.35 in 10.0 mi Calm Calm - N/A   Clear
10:35 PM 35.6 °F - 35.6 °F 100% 30.35 in 10.0 mi Calm Calm - N/A   Clear
10:55 PM 35.6 °F - 35.6 °F 100% 30.35 in 10.0 mi Calm Calm - N/A   Clear
11:15 PM 35.6 °F - 35.6 °F 100% 30.35 in 10.0 mi Calm Calm - N/A   Clear
11:35 PM 35.6 °F 32.8 °F 35.6 °F 100% 30.35 in 10.0 mi SW 3.5 mph - N/A   Clear
11:55 PM 35.6 °F 32.8 °F 35.6 °F 100% 30.35 in 10.0 mi SW 3.5 mph - N/A   Clear